This is the latest recevied weather packets stored in our database for station/object OK1FRN-6. If no packets are shown the sender has not sent any weather packets the latest 10 day(s).
| Time | Temp. | Humidity | Pressure | Rain* | Wind** | Luminosity | Snow |
|---|---|---|---|---|---|---|---|
| 1777542960 | 16.11° C | 24% | 1032.2 hPa | - | - | - | - |
| 1777542654 | 16.11° C | 25% | 1032.3 hPa | - | - | - | - |
| 1777542348 | 16.11° C | 25% | 1032.3 hPa | - | - | - | - |
| 1777542041 | 16.11° C | 25% | 1032.3 hPa | - | - | - | - |
| 1777541735 | 16.11° C | 25% | 1032.3 hPa | - | - | - | - |
| 1777541429 | 16.11° C | 25% | 1032.3 hPa | - | - | - | - |
| 1777541122 | 16.11° C | 26% | 1032.3 hPa | - | - | - | - |
| 1777540816 | 15.56° C | 26% | 1032.4 hPa | - | - | - | - |
| 1777540510 | 15° C | 25% | 1032.5 hPa | - | - | - | - |
| 1777540204 | 15° C | 26% | 1032.5 hPa | - | - | - | - |
| 1777539898 | 15° C | 26% | 1032.5 hPa | - | - | - | - |
| 1777539285 | 14.44° C | 26% | 1032.6 hPa | - | - | - | - |
| 1777538979 | 14.44° C | 26% | 1032.6 hPa | - | - | - | - |
| 1777538367 | 15° C | 26% | 1032.6 hPa | - | - | - | - |
| 1777538061 | 15° C | 28% | 1032.7 hPa | - | - | - | - |
| 1777537449 | 14.44° C | 26% | 1032.7 hPa | - | - | - | - |
| 1777536530 | 14.44° C | 27% | 1032.9 hPa | - | - | - | - |
| 1777535918 | 15° C | 28% | 1033 hPa | - | - | - | - |
| 1777534693 | 13.33° C | 31% | 1033 hPa | - | - | - | - |
| 1777534387 | 12.22° C | 31% | 1032.9 hPa | - | - | - | - |
| 1777534081 | 12.22° C | 31% | 1033 hPa | - | - | - | - |
| 1777533469 | 11.67° C | 33% | 1032.9 hPa | - | - | - | - |
| 1777533164 | 11.11° C | 33% | 1033 hPa | - | - | - | - |
| 1777532858 | 11.11° C | 33% | 1033 hPa | - | - | - | - |
| 1777532249 | 10.56° C | 35% | 1032.9 hPa | - | - | - | - |
* Rain since midnight (hover to see other rain measurements)
** Current wind speed in m/s (hover to see current wind gust speed)